LKMT Weather Reports


time (UTC)temp
C
wind
direction
speed
KPH
gust
KPH
rain 1hr
cm
rain 24hr
cm
rain mn
cm
humidity
%
barometer
mb
20220930163229 11 330 3.2 0.0 0.00 0.00 0.00 93 1013.0
20220930161902 11 340 3.2 0.0 0.00 0.00 0.00 93 1013.0
20220930161558 11 340 3.2 0.0 0.00 0.00 0.00 93
20220930160229 11 0 1.6 0.0 0.00 0.00 0.00 93 1013.0
20220930153229 11 340 4.8 0.0 0.00 0.00 0.00 93 1013.0
20220930151541 11 300 8.0 0.0 0.00 0.00 0.00 93
20220930150230 11 310 8.0 0.0 0.00 0.00 0.00 93 1013.0
20220930143230 11 10 8.0 0.0 0.00 0.00 0.00 93 1012.0
20220930141558 11 0 8.0 0.0 0.00 0.00 0.00 93
20220930140237 11 10 8.0 0.0 0.00 0.00 0.00 93 1012.0
20220930133230 11 10 9.7 0.0 0.00 0.00 0.00 93 1012.0
20220930131558 11 20 8.0 0.0 0.00 0.00 0.00 93
20220930130230 11 20 8.0 0.0 0.00 0.00 0.00 93 1012.0
20220930124503 11 350 8.0 0.0 0.00 0.00 0.00 93 1012.0
20220930123303 11 350 8.0 0.0 0.00 0.00 0.00 93 1012.0
20220930121558 11 360 8.0 0.0 0.00 0.00 0.00 93
20220930120236 11 360 8.0 0.0 0.00 0.00 0.00 93 1012.0
20220930113229 11 360 9.7 0.0 0.00 0.00 0.00 93 1011.0
20220930112504 11 360 9.7 0.0 0.00 0.00 0.00 93 1011.0
20220930111558 11 10 11.3 0.0 0.00 0.00 0.00 93
20220930110229 11 10 9.7 0.0 0.00 0.00 0.00 93 1011.0
20220930104709 11 360 9.7 0.0 0.00 0.00 0.00 93 1011.0
20220930103230 10 360 9.7 0.0 0.00 0.00 0.00 100 1011.0
20220930101602 10 350 11.3 0.0 0.00 0.00 0.00 93
20220930100230 10 360 9.7 0.0 0.00 0.00 0.00 93 1011.0
20220930093230 10 10 9.7 0.0 0.00 0.00 0.00 93 1011.0
20220930091558 10 10 11.3 0.0 0.00 0.00 0.00 93
20220930090230 10 10 11.3 0.0 0.00 0.00 0.00 93 1010.0
20220930083230 10 360 11.3 0.0 0.00 0.00 0.00 93 1010.0
20220930081558 10 360 8.0 0.0 0.00 0.00 0.00 93
20220930080224 8 360 8.0 0.0 0.00 0.00 0.00 100 1010.0
20220930073230 8 10 9.7 0.0 0.00 0.00 0.00 100 1010.0
20220930071558 8 10 11.3 0.0 0.00 0.00 0.00 99
20220930070231 8 10 9.7 0.0 0.00 0.00 0.00 93 1009.0
20220930063230 8 20 9.7 0.0 0.00 0.00 0.00 93 1009.0
20220930062709 8 20 9.7 0.0 0.00 0.00 0.00 93 1009.0
20220930061558 8 20 11.3 0.0 0.00 0.00 0.00 93
20220930060244 8 10 9.7 0.0 0.00 0.00 0.00 93 1009.0
20220930054709 8 10 8.0 0.0 0.00 0.00 0.00 93 1009.0
20220930053223 8 360 9.7 0.0 0.00 0.00 0.00 93 1009.0
20220930052104 8 360 9.7 0.0 0.00 0.00 0.00 93 1009.0
20220930051558 8 20 8.0 0.0 0.00 0.00 0.00 93
20220930051004 8 360 9.7 0.0 0.00 0.00 0.00 93 1009.0
20220930050230 8 20 8.0 0.0 0.00 0.00 0.00 93 1008.0
20220930044903 8 20 4.8 0.0 0.00 0.00 0.00 93 1008.0
20220930043604 8 40 4.8 0.0 0.00 0.00 0.00 93 1008.0
20220930043224 8 30 4.8 0.0 0.00 0.00 0.00 93 1008.0
20220930041558 8 50 8.0 0.0 0.00 0.00 0.00 93
20220930040230 8 50 4.8 0.0 0.00 0.00 0.00 93 1008.0
20220930033221 8 60 4.8 0.0 0.00 0.00 0.00 93 1008.0
20220930031556 8 20 11.3 0.0 0.00 0.00 0.00 93
20220930030228 8 20 9.7 0.0 0.00 0.00 0.00 93 1008.0
20220930023220 8 20 8.0 0.0 0.00 0.00 0.00 93 1008.0
20220930021604 8 40 8.0 0.0 0.00 0.00 0.00 93 1008.0
20220930021557 8 40 8.0 0.0 0.00 0.00 0.00 93
20220930020228 8 30 9.7 0.0 0.00 0.00 0.00 93 1008.0
20220930013221 8 10 9.7 0.0 0.00 0.00 0.00 93 1008.0
20220930011556 8 10 11.3 0.0 0.00 0.00 0.00 93
20220930010228 7 20 8.0 0.0 0.00 0.00 0.00 100 1008.0
20220930003220 7 40 4.8 0.0 0.00 0.00 0.00 100 1008.0
20220930001557 7 50 8.0 0.0 0.00 0.00 0.00 93
20220930000235 7 0 3.2 0.0 0.00 0.00 0.00 93 1007.0
20220929233221 7 80 3.2 0.0 0.00 0.00 0.00 93 1007.0
20220929231556 7 0 3.2 0.0 0.00 0.00 0.00 93
20220929230228 7 10 3.2 0.0 0.00 0.00 0.00 93 1008.0
20220929223221 7 50 4.8 0.0 0.00 0.00 0.00 93 1007.0
20220929221557 7 70 3.2 0.0 0.00 0.00 0.00 93
20220929220228 7 70 3.2 0.0 0.00 0.00 0.00 93 1007.0
20220929213222 7 0 3.2 0.0 0.00 0.00 0.00 93 1007.0
20220929211557 7 30 3.2 0.0 0.00 0.00 0.00 93
20220929210229 7 20 3.2 0.0 0.00 0.00 0.00 93 1007.0
20220929203221 7 0 0.0 0.0 0.00 0.00 0.00 93 1007.0
20220929201541 7 70 3.2 0.0 0.00 0.00 0.00 93
20220929200227 7 70 3.2 0.0 0.00 0.00 0.00 93 1006.0
20220929193221 8 30 3.2 0.0 0.00 0.00 0.00 93 1006.0
20220929191557 8 40 3.2 0.0 0.00 0.00 0.00 87
20220929190228 8 0 3.2 0.0 0.00 0.00 0.00 87 1006.0
20220929183229 8 0 3.2 0.0 0.00 0.00 0.00 87 1006.0
20220929181557 10 60 3.2 0.0 0.00 0.00 0.00 81
20220929180229 10 50 3.2 0.0 0.00 0.00 0.00 81 1006.0
20220929173228 10 0 3.2 0.0 0.00 0.00 0.00 81 1006.0
20220929171558 11 80 3.2 0.0 0.00 0.00 0.00 76
20220929170228 11 90 3.2 0.0 0.00 0.00 0.00 76 1005.0